WATER LEVELS

Guaranteed water level and forecast    Ústí nad Labem-Střekov

Guaranteed water level
190 cm
on 22.10.2019 more information
Forecast
180 cm
on 23.10.2019 07:00
Tendency
Slowly decreasing
on 23.10.2019 metodika tendence
Forecast
174 cm
on 24.10.2019 07:00
(Source data ČHMÚ a Povodí Labe)

Ústí nad Labem

Date and time (UTC) H (cm) Q (m3/s)
22. 10. 2019 11:20 192 183
22. 10. 2019 11:00 192 183
22. 10. 2019 10:00 198 194
22. 10. 2019 09:00 196 190
22. 10. 2019 08:00 192 183
22. 10. 2019 07:00 192 183
22. 10. 2019 06:00 192 183
22. 10. 2019 05:00 194 187
22. 10. 2019 04:00 193 185
22. 10. 2019 03:00 194 187
22. 10. 2019 02:00 193 185
22. 10. 2019 01:00 194 187
22. 10. 2019 00:00 196 190
21. 10. 2019 23:00 196 190

H - vodni stav, Q - discharge
more information

Mělník

Date and time (UTC) H (cm) Q (m3/s)
22. 10. 2019 11:10 261 -
22. 10. 2019 11:00 261 -
22. 10. 2019 10:00 262 -
22. 10. 2019 09:00 261 -
22. 10. 2019 08:00 262 -
22. 10. 2019 07:00 262 -
22. 10. 2019 06:00 263 160
22. 10. 2019 05:00 263 -
22. 10. 2019 04:00 263 -
22. 10. 2019 03:00 262 -
22. 10. 2019 02:00 259 -
22. 10. 2019 01:00 260 -
22. 10. 2019 00:00 262 -
21. 10. 2019 23:00 258 -

H - vodni stav, Q - discharge
more information

Kostelec nad Labem

Date and time (UTC) H (cm) Q (m3/s)
22. 10. 2019 11:20 401 -
22. 10. 2019 11:00 402 -
22. 10. 2019 10:00 402 26
22. 10. 2019 09:00 400 25
22. 10. 2019 08:00 402 24
22. 10. 2019 07:00 399 24
22. 10. 2019 06:00 399 16
22. 10. 2019 05:00 399 -
22. 10. 2019 04:00 399 17
22. 10. 2019 03:00 399 17
22. 10. 2019 02:00 399 17
22. 10. 2019 01:00 399 19
22. 10. 2019 00:00 399 20
21. 10. 2019 23:00 399 22

H - vodni stav, Q - discharge
more information

Přelouč

Date and time (UTC) H (cm) Q (m3/s)
22. 10. 2019 11:10 39 16
22. 10. 2019 11:00 40 17
22. 10. 2019 10:00 47 20
22. 10. 2019 09:00 47 20
22. 10. 2019 08:00 48 21
22. 10. 2019 07:00 47 20
22. 10. 2019 06:00 38 16
22. 10. 2019 05:00 38 16
22. 10. 2019 04:00 42 18
22. 10. 2019 03:00 48 21
22. 10. 2019 02:00 48 21
22. 10. 2019 01:00 46 20
22. 10. 2019 00:00 44 19
21. 10. 2019 23:00 41 17

H - vodni stav, Q - discharge
more information

Praha-Chuchle

Date and time (UTC) H (cm) Q (m3/s)
22. 10. 2019 11:30 62 108
22. 10. 2019 11:00 63 112
22. 10. 2019 10:00 62 108
22. 10. 2019 09:00 65 120
22. 10. 2019 08:00 66 123
22. 10. 2019 07:00 66 123
22. 10. 2019 06:00 66 123
22. 10. 2019 05:00 67 128
22. 10. 2019 04:00 67 128
22. 10. 2019 03:00 67 128
22. 10. 2019 02:00 67 128
22. 10. 2019 01:00 67 128
22. 10. 2019 00:00 67 128
21. 10. 2019 23:00 66 123

H - vodni stav, Q - discharge
more information

České Budějovice

Date and time (UTC) H (cm) Q (m3/s)
22. 10. 2019 11:30 100 10
22. 10. 2019 11:00 100 10
22. 10. 2019 10:00 103 11
22. 10. 2019 09:00 100 10
22. 10. 2019 08:00 100 10
22. 10. 2019 07:00 99 10
22. 10. 2019 06:00 101 11
22. 10. 2019 05:00 100 11
22. 10. 2019 04:00 101 11
22. 10. 2019 03:00 101 12
22. 10. 2019 02:00 99 11
22. 10. 2019 01:00 101 12
22. 10. 2019 00:00 101 12
21. 10. 2019 23:00 100 11

H - vodni stav, Q - discharge
more information
Source data
Labe Basin Vltava Basin ČHMÚ